Lid_Strength_Index
-1 0 1 3 7 7 10 10 7 8 8 6 5 6 7 6 8 11 1 0 -0 -0 -1 -1 -1 -1 -1 -2 -2 -1 -1 -1 -1 -2 -1 -2 -2 -2 -2 -3 -3 -3 -3 -2 -3 -3 -3 -3 -3
-1 1 4 5 8 10 10 8 9 8 6 5 5 6 7 8 4 4 3 0 -1 -1 -1 -1 -1 -2 -2 -2 -1 -1 -1 -2 -2 -2 -2 -2 -2 -3 -3 -3 -3 -3 -3 -3 -2 -2 -2 -2 -2
2 4 5 7 8 10 10 8 7 6 5 5 6 4 6 7 4 3 1 -0 -1 -1 -1 -1 -1 -2 -1 -1 -1 -1 -1 -2 -2 -2 -2 -2 -3 -2 -3 -3 -3 -3 -3 -2 -2 -2 -2 -2 -2
4 5 7 8 10 9 8 7 6 7 5 5 5 7 4 2 3 1 -0 -0 -0 -0 -1 -1 -1 -1 -1 -1 -1 -1 -2 -2 -2 -2 -2 -2 -3 -2 -3 -3 -3 -3 -2 -2 -2 -2 -2 -2 -2
6 6 8 10 10 10 8 7 5 7 6 6 5 8 7 3 1 1 0 -0 0 -0 -1 -1 -1 -1 -1 -1 -1 -1 -2 -2 -2 -2 -2 -2 -2 -2 -3 -3 -3 -3 -2 -2 -2 -2 -2 -2 -2
7 8 10 11 11 10 9 5 5 6 6 6 6 7 6 2 2 1 -0 -0 -1 -0 -1 -1 -1 -1 -2 -2 -1 -1 -2 -2 -2 -2 -3 -2 -2 -2 -3 -3 -3 -2 -2 -2 -2 -2 -2 -2 -2
8 8 11 12 11 10 9 5 6 6 6 7 5 8 5 4 1 1 0 -0 -1 -1 -1 -1 -1 -1 -1 -1 -1 -1 -2 -2 -2 -2 -2 -2 -2 -2 -2 -3 -3 -2 -2 -2 -2 -2 -2 -2 -2
8 8 11 11 10 9 6 6 5 6 7 4 3 8 7 3 1 0 0 0 -0 -0 -1 -1 -1 -1 -1 -1 -1 -1 -1 -2 -2 -2 -2 -2 -2 -2 -2 -3 -3 -2 -2 -2 -2 -2 -2 -1 -1
8 8 10 10 9 8 6 7 5 4 6 5 4 5 3 2 1 1 2 1 1 0 -0 -1 -1 -1 -1 -1 -1 -1 -1 -1 -1 -1 -1 -2 -2 -2 -2 -1 -2 -2 -2 -2 -2 -1 -1 1 1
7 8 9 9 8 8 7 7 6 6 7 7 6 4 3 2 2 3 3 3 2 2 1 -0 -0 -1 -1 -1 -1 -1 -1 -2 -2 -2 -2 -2 -2 -2 -2 -2 -1 -2 -2 -2 -0 0 1 1 1
8 9 9 7 5 6 7 7 6 7 9 7 7 6 4 3 3 3 3 2 2 1 1 1 -0 -1 -1 -1 -1 -1 -1 -2 -2 -2 -2 -2 -2 -2 -2 -2 -2 -2 0 -1 -1 -1 -0 1 1
8 7 7 7 6 6 8 6 8 7 7 5 4 4 4 4 4 4 3 3 2 1 0 -0 -0 -0 -1 1 0 0 -1 -1 -1 -2 -2 -2 -2 -2 -2 -1 -1 -1 -2 -1 -1 -0 1 1 2
7 7 6 6 6 6 6 8 8 8 5 4 4 4 5 4 4 3 3 2 2 2 1 0 -0 -0 -0 0 -0 1 -0 -1 -1 -1 -1 -2 -2 -2 -1 -1 -1 -1 -2 -1 0 1 1 1 2
6 7 7 6 6 6 8 8 7 7 5 5 4 5 4 4 3 3 3 3 2 2 1 0 0 -0 -0 0 0 0 -0 -1 -1 -1 -0 -0 -0 -1 -1 -0 -1 0 0 1 2 2 1 2 2
6 8 7 7 7 7 6 9 10 6 5 6 5 5 4 4 3 3 2 2 2 1 1 0 0 0 -0 0 1 1 -1 -1 -1 -1 -1 -0 -0 1 1 2 2 1 2 1 1 2 2 3 1
7 7 10 8 7 7 7 14 8 5 6 7 6 5 5 4 3 2 2 3 3 2 1 0 1 1 1 1 0 0 0 0 -0 0 0 1 0 1 1 2 2 1 1 2 3 3 4 3 2
8 11 12 11 7 8 8 12 8 6 6 7 6 6 5 4 3 3 3 3 3 2 2 2 1 1 1 0 1 1 1 1 -0 1 1 1 2 0 0 1 1 2 3 3 3 4 4 3 3
10 12 12 12 9 8 11 11 8 6 6 7 6 6 5 5 4 3 3 4 4 3 3 2 1 0 -0 -1 -1 -0 1 1 1 2 3 2 1 2 1 1 1 2 2 3 2 2 4 4 4
9 11 12 11 8 10 11 11 9 7 6 7 6 6 5 5 3 3 4 3 3 3 3 3 2 0 0 0 1 1 1 -0 -0 -0 1 0 1 1 1 0 -1 -0 1 2 2 3 4 4 2
9 11 12 10 8 10 11 11 9 7 7 6 7 6 6 5 4 3 2 2 1 1 1 1 1 0 0 1 1 0 1 0 0 0 -0 -0 0 0 -0 -1 -0 -1 -0 -0 1 2 4 4 3
9 10 12 12 10 9 10 13 10 8 7 7 6 5 5 5 5 3 3 2 2 1 1 1 0 0 0 1 1 1 1 1 1 2 1 -0 0 -0 -1 -1 -1 -1 -1 -0 -0 0 1 3 1
10 7 9 11 12 14 10 15 12 10 9 8 7 6 6 5 4 3 3 3 2 2 1 -0 -0 -0 1 0 1 1 2 2 1 1 0 -0 -1 -1 -1 -1 -2 -2 -2 -1 -1 -1 -0 0 2
9 8 9 10 11 12 13 14 13 10 11 9 7 6 5 4 4 4 3 3 2 1 1 -0 -0 0 0 1 1 1 1 1 1 1 0 -0 -1 -1 -1 -1 -1 -1 -1 -1 -1 -0 -0 -0 1
7 9 9 10 9 13 13 14 14 13 10 9 7 6 5 4 4 4 3 3 2 1 0 0 1 1 0 0 0 0 1 1 2 1 1 1 0 0 -1 -0 -1 -2 -1 -1 -1 -1 -1 -0 -0
8 9 12 13 13 14 12 14 13 9 8 8 7 6 5 4 5 4 3 3 2 1 1 2 2 1 1 0 0 0 0 0 1 1 2 1 1 1 -0 -1 -1 -1 -1 -1 -1 -1 -0 0 0
9 9 12 16 15 13 12 15 13 8 7 6 6 6 5 6 5 4 3 2 3 3 3 2 2 1 1 1 1 1 0 2 2 1 1 1 1 -0 -1 -2 -2 -1 -1 -1 -2 -1 -0 -1 -1
9 10 8 12 12 13 13 12 10 8 8 7 7 6 7 6 5 4 4 4 3 3 3 2 2 1 1 2 2 1 1 1 2 1 1 1 0 0 -1 -1 -1 -1 -1 -1 -1 -1 -0 -0 -0
7 7 11 10 15 15 14 14 15 11 10 8 8 7 6 5 4 4 4 5 3 4 2 1 1 1 2 1 2 2 1 1 1 1 1 0 -0 -0 -1 -1 -1 -1 -1 -1 -1 -0 0 0 0
9 9 10 10 12 15 16 16 10 10 9 9 8 6 6 5 5 5 5 4 4 2 2 1 1 1 2 2 2 2 2 2 2 1 1 1 -0 -0 -0 -0 1 0 -0 -0 2 1 1 2 2
8 10 11 13 15 14 14 15 8 8 7 7 7 6 6 5 5 5 5 4 3 3 2 2 3 3 2 2 2 2 3 2 2 2 3 1 1 1 2 2 2 2 2 2 1 2 2 3 2